DateTimeUTC,F1_A11,F1_S11,BsB_S11,BsG_S11,BsR_S11,BbsB_S11,BbsG_S11,BbsR_S11,BaB_A11,BaG_A11,BaR_A11,Tu_S11,T_S11,Uu_S11,U_S11,P_S11,T1_A11
2021-06-19T08:00:00Z,00000200,20000000,,,,,,,-000.13,-000.04,0000.14,17.5,24.5,02.6,01.7,0671.6,31.0
2021-06-19T08:01:00Z,00000200,20000000,,,,,,,0000.13,0000.25,-000.03,17.5,24.5,02.6,01.7,0671.6,31.1
2021-06-19T08:02:00Z,00000200,20000000,,,,,,,0000.08,-000.42,0000.12,17.5,24.5,02.5,01.6,0671.6,31.0
2021-06-19T08:03:00Z,00000200,60000000,,,,,,,-000.14,0000.38,-000.09,17.6,24.5,02.3,01.5,0671.6,31.0
2021-06-19T08:04:00Z,00000200,40000000,0001.34,0000.84,0000.49,0000.07,-000.12,0000.37,0000.47,0000.19,0000.37,18.0,24.5,02.4,01.6,0672.5,31.1
2021-06-19T08:05:00Z,00000200,00000000,0001.36,0000.62,0000.46,0000.43,0000.15,0000.37,0000.32,0000.44,-000.01,18.1,24.5,02.5,01.7,0672.6,31.1
2021-06-19T08:06:00Z,00000200,00000000,0001.43,0000.61,0000.13,0000.16,0000.25,0000.31,0000.21,0000.28,0000.19,18.0,24.4,02.5,01.7,0672.6,31.0
2021-06-19T08:07:00Z,00000200,00000000,0001.16,0000.54,0000.41,0000.59,0000.30,0000.24,0000.40,0000.51,0000.39,18.0,24.4,02.6,01.8,0672.6,31.0
2021-06-19T08:08:00Z,00000200,00000000,0000.98,0000.82,0000.36,0000.68,0000.47,0000.50,0000.63,0000.36,0000.20,17.9,24.4,02.7,01.8,0672.6,31.0
2021-06-19T08:09:00Z,00000200,00000000,0000.79,0001.04,0000.61,0000.61,0000.08,0000.32,0000.39,-000.01,0000.15,17.9,24.4,02.7,01.8,0672.6,31.0
2021-06-19T08:10:00Z,00000200,00000000,0001.37,0000.63,0000.52,0000.56,0000.30,0000.14,0000.51,0000.41,0000.23,17.9,24.3,02.7,01.8,0672.6,31.0
2021-06-19T08:11:00Z,00000200,00000000,0001.78,0000.73,0000.41,0000.05,0000.09,0000.20,-000.01,0000.47,0000.52,17.8,24.3,02.8,01.9,0672.5,31.0
2021-06-19T08:12:00Z,00000200,00000000,0001.35,0000.47,0000.35,0000.00,0000.54,0000.43,0000.41,-000.30,-000.04,17.8,24.3,02.8,01.9,0672.5,31.0
2021-06-19T08:13:00Z,00000200,00000000,0001.43,0000.86,0000.37,0000.02,0000.06,0000.09,0000.23,0000.51,0000.27,17.8,24.2,02.7,01.8,0672.6,31.0
2021-06-19T08:14:00Z,00000200,00000000,0001.34,0000.71,0000.18,0000.45,0000.37,0000.05,0000.43,0000.27,0000.29,17.8,24.3,02.9,01.9,0672.5,31.0
2021-06-19T08:15:00Z,00000200,00000000,0001.36,0000.82,0000.56,0000.19,0000.23,0000.41,0000.07,0000.10,0000.13,17.9,24.3,02.8,01.9,0672.4,31.0
2021-06-19T08:16:00Z,00000200,00000000,0001.07,0000.87,0000.39,0000.58,0000.14,0000.35,-000.03,0000.32,0000.16,17.9,24.3,02.7,01.8,0672.4,31.0
2021-06-19T08:17:00Z,00000200,00000000,0001.84,0000.70,0000.36,0000.20,0000.19,0000.27,0000.53,0000.30,0000.10,18.0,24.4,02.6,01.8,0672.5,31.1
2021-06-19T08:18:00Z,00000200,00000000,0001.39,0000.66,0000.30,0000.00,0000.43,0000.59,0000.10,0000.08,0000.24,18.1,24.4,02.6,01.8,0672.5,31.1
2021-06-19T08:19:00Z,00000200,00000000,0001.72,0000.94,0000.44,0000.23,0000.15,0000.36,0000.59,0000.50,-000.01,18.1,24.5,02.7,01.8,0672.5,31.1
2021-06-19T08:20:00Z,00000200,00000000,0001.49,0000.62,0000.46,0000.46,0000.22,0000.21,0000.30,0000.35,0000.45,18.1,24.5,02.7,01.8,0672.5,31.0
2021-06-19T08:21:00Z,00000200,00000000,0001.49,0000.67,0000.43,-000.14,-000.03,0000.46,0000.41,0000.41,0000.28,18.1,24.5,02.7,01.8,0672.5,31.0
2021-06-19T08:22:00Z,00000200,00000000,0001.52,0000.52,0000.31,0000.45,0000.34,0000.32,-000.01,-000.02,0000.21,18.0,24.4,02.7,01.8,0672.5,31.0
2021-06-19T08:23:00Z,00000200,00000000,0001.67,0000.79,0000.73,0000.31,0000.31,0000.04,0000.51,0000.24,-000.01,18.0,24.4,02.6,01.8,0672.4,31.0
2021-06-19T08:24:00Z,00000200,00000000,0001.59,0000.65,0000.29,0000.07,0000.25,-000.01,0000.14,0000.11,0000.16,17.9,24.4,02.6,01.8,0672.4,31.0
2021-06-19T08:25:00Z,00000200,00000000,0001.47,0001.03,0000.47,-000.13,0000.22,0000.36,0000.30,0000.46,0000.16,17.9,24.3,02.7,01.8,0672.4,31.0
2021-06-19T08:26:00Z,00000200,00000000,0001.69,0000.62,0000.37,0000.70,-000.01,0000.17,0000.30,0000.40,0000.09,17.9,24.3,02.7,01.8,0672.4,31.0
2021-06-19T08:27:00Z,00000200,00000000,0001.39,0000.75,0000.42,0000.74,-000.01,0000.44,0000.16,-000.23,0000.12,17.8,24.3,02.7,01.8,0672.4,31.0
2021-06-19T08:28:00Z,00000200,00000000,0001.41,0000.61,0000.63,0000.63,0000.25,0000.42,0000.35,0000.40,0000.60,17.8,24.3,02.8,01.9,0672.4,31.0
2021-06-19T08:29:00Z,00000200,00000000,0000.88,0000.45,0000.72,0000.59,0000.03,0000.37,0000.47,0000.24,0000.21,17.8,24.3,02.8,01.9,0672.5,31.0
2021-06-19T08:30:00Z,00000200,00000000,0001.48,0001.06,0000.37,-000.54,0000.34,0000.37,0000.66,0000.92,0000.40,17.9,24.3,02.9,02.0,0672.5,31.0
2021-06-19T08:31:00Z,00000200,00000000,0001.04,0000.60,0000.47,0000.48,0000.15,0000.18,0000.43,0000.36,0000.35,17.9,24.3,02.8,01.9,0672.5,31.0
2021-06-19T08:32:00Z,00000200,00000000,0001.53,0000.44,0000.65,0000.54,0000.37,0000.32,0000.11,0000.02,0000.10,18.0,24.4,02.9,01.9,0672.5,31.1
2021-06-19T08:33:00Z,00000200,00000000,0001.88,0000.93,0000.37,0000.54,0000.27,0000.09,0000.13,0000.22,0000.25,18.1,24.4,02.9,01.9,0672.5,31.1
2021-06-19T08:34:00Z,00000200,00000000,0001.20,0000.83,0000.42,-000.31,0000.42,0000.35,0000.64,0000.84,0000.43,18.1,24.4,03.0,02.0,0672.5,31.0
2021-06-19T08:35:00Z,00000200,00000000,0000.80,0000.91,0000.39,0000.46,0000.02,0000.24,0000.41,0000.26,0000.04,18.0,24.4,03.0,02.0,0672.4,31.1
2021-06-19T08:36:00Z,00000200,00000000,0001.68,0000.85,0000.68,0000.42,0000.06,0000.29,0000.38,0000.37,-000.02,18.0,24.4,03.0,02.0,0672.4,31.0
2021-06-19T08:37:00Z,00000200,00000000,0001.45,0000.61,0000.44,0000.09,0000.58,0000.28,0000.67,0000.29,0000.53,18.0,24.4,03.1,02.1,0672.3,31.0
2021-06-19T08:38:00Z,00000200,00000000,0001.03,0000.88,0000.69,0000.39,0000.32,0000.35,0000.02,0000.11,0000.48,17.9,24.3,03.0,02.0,0672.3,31.0
2021-06-19T08:39:00Z,00000200,00000000,0001.53,0000.55,0000.39,0000.29,0000.05,0000.19,0000.40,0000.32,-000.03,17.9,24.3,03.1,02.1,0672.3,31.0
2021-06-19T08:40:00Z,00000200,00000000,0001.80,0000.72,0000.40,-000.17,0000.01,0000.17,0000.45,0000.40,0000.39,17.8,24.3,03.1,02.1,0672.3,31.0
2021-06-19T08:41:00Z,00000200,00000000,0001.78,0000.63,0000.48,0000.36,0000.03,0000.19,0000.34,0000.72,0000.22,17.8,24.2,03.2,02.1,0672.3,31.0
2021-06-19T08:42:00Z,00000200,00000000,0001.41,0000.88,0000.47,-000.14,0000.23,0000.20,0000.30,-000.27,0000.21,17.8,24.2,03.1,02.1,0672.3,31.0
2021-06-19T08:43:00Z,00000200,00000000,0001.90,0000.91,0000.60,0000.81,0000.06,0000.30,0000.27,0000.17,-000.11,17.7,24.2,03.2,02.1,0672.3,31.0
2021-06-19T08:44:00Z,00000200,00000000,0001.62,0000.64,0000.42,0000.24,-000.01,-000.01,0000.38,0000.98,0000.71,17.8,24.2,03.2,02.2,0672.3,31.0
2021-06-19T08:45:00Z,00000200,00000000,0001.77,0000.55,0000.62,0000.26,0000.49,0000.30,0000.84,0000.50,0000.10,17.9,24.3,03.2,02.2,0672.4,31.0
2021-06-19T08:46:00Z,00000200,00000000,0001.55,0000.57,0000.46,-000.22,0000.07,0000.12,0000.40,0000.15,0000.48,17.9,24.3,03.3,02.2,0672.4,31.0
2021-06-19T08:47:00Z,00000200,00000000,0001.43,0000.51,0000.48,0000.39,0000.19,0000.13,0000.35,0000.33,0000.28,18.0,24.4,03.4,02.3,0672.4,31.0
2021-06-19T08:48:00Z,00000200,00000000,0002.33,0000.83,0000.37,0000.20,-000.05,0000.17,0000.02,0000.38,0000.10,18.1,24.4,03.4,02.3,0672.3,31.1
2021-06-19T08:49:00Z,00000200,00000000,0002.20,0000.80,0000.66,-000.09,0000.21,0000.31,0000.18,0000.12,-000.00,18.2,24.4,03.4,02.3,0672.4,31.1
2021-06-19T08:50:00Z,00000200,00000000,0002.25,0000.91,0000.52,0000.73,0000.19,0000.22,0000.43,0000.37,0000.46,18.2,24.4,03.2,02.1,0672.3,31.1
2021-06-19T08:51:00Z,00000200,00000000,0001.33,0000.56,0000.44,0000.17,0000.23,0000.19,0000.25,-000.23,-000.31,18.2,24.4,03.2,02.2,0672.3,31.1
2021-06-19T08:52:00Z,00000200,00000000,0001.43,0000.69,0000.44,0000.37,0000.33,0000.45,-000.38,-000.20,-000.09,18.1,24.4,03.0,02.1,0672.3,31.1
2021-06-19T08:53:00Z,00000200,00000000,0002.02,0000.51,0000.21,0000.24,0000.44,-000.01,0000.65,0000.89,0000.61,18.1,24.4,03.0,02.0,0672.3,31.0
2021-06-19T08:54:00Z,00000200,00000000,0002.31,0000.88,0000.42,0000.05,0000.09,0000.35,0000.48,0000.33,0000.38,18.0,24.4,03.0,02.0,0672.3,31.0
2021-06-19T08:55:00Z,00000200,00000000,0001.87,0000.49,0000.48,-000.11,0000.34,-000.05,0000.49,-000.01,0000.38,18.0,24.3,03.1,02.1,0672.3,31.0
2021-06-19T08:56:00Z,00000200,00000000,0001.46,0000.52,0000.59,0000.41,0000.11,0000.31,0000.07,0000.45,0000.01,17.9,24.3,03.1,02.1,0672.2,31.0
2021-06-19T08:57:00Z,00000200,40000000,,,,,,,-000.26,-000.25,0000.00,17.9,24.4,03.1,02.1,0672.2,31.0
2021-06-19T08:58:00Z,00000200,60000000,,,,,,,0000.09,0000.17,-000.23,17.7,24.4,02.9,01.9,0671.2,31.0
2021-06-19T08:59:00Z,00000200,20000000,,,,,,,0000.11,-000.29,0000.25,17.7,24.5,02.9,01.9,0671.2,31.0
